Location: Newark
(45.8833°N, 13.5000°E)
Time: 06:44:25
(UTC+00:00)

Tiangong 2 - Visible Passes

Search period start: 18 July 2019 00:00
Search period end: 28 July 2019 00:00
Orbit: 378 x 386 km, 42.8° (Epoch: 17 July)

Date Brightness Start Highest point End Pass type
(mag) Time Alt. Az. Time Alt. Az. Time Alt. Az.
18 Jul 2.3 20:15:20 10° WSW 20:18:02 27° SSW 20:19:09 21° SSE visible
19 Jul 3.5 20:52:27 10° WSW 20:53:28 13° SW 20:53:28 13° SW visible
20 Jul 2.9 19:51:30 10° WSW 19:53:51 20° SSW 19:55:41 13° SSE visible
22 Jul 3.5 19:27:58 10° WSW 19:29:35 13° SSW 19:31:12 10° S visible
